Regional Weather Roundup
Issued by NWS

Home | Current Version | Previous Version | Graphics & Text | Print | Product List | Glossary On
Versions: 1 2 3 4 5 6 7 8 9 10 11 12 13 14 15 16 17 18 19 20 21 22 23 24 25 26 27 28 29 30 31 32 33 34 35 36 37 38 39 40 41 42 43 44 45 46 47 48 49 50
000
ASUS43 KOAX 181810
RWRNE

WEATHER ROUNDUP FOR NEBRASKA
NATIONAL WEATHER SERVICE OMAHA NE
1200 PM CST SAT FEB 18 2017

NOTES: SATELLITE DATA IS BEING USED TO AUGMENT CLOUD COVER ABOVE
       12000 FEET.
       "FAIR" INDICATES FEW OR NO CLOUDS BELOW 12,000 FEET WITH NO
       SIGNIFICANT WEATHER AND/OR OBSTRUCTIONS TO VISIBILITY.

  * THESE STATIONS DO NOT REPORT WEATHER SUCH AS RAIN...SNOW OR FOG.

NEZ001>004-019>022-054>056-181900-
NEBRASKA PANHANDLE

CITY           SKY/WX    TMP DP  RH WIND       PRES   REMARKS
SCOTTSBLUFF    CLOUDY    56  26  31 S10       29.74F
6HR MIN TEMP:  37; 6HR MAX TEMP:  56;

ALLIANCE       CLOUDY    54  25  32 S20G28    29.73F
6HR MIN TEMP:  26; 6HR MAX TEMP:  54;

CHADRON        CLOUDY    57  27  31 S13G22    29.69S
6HR MIN TEMP:  40; 6HR MAX TEMP:  58;

KIMBALL        CLOUDY    55  29  36 SW12      29.76F
SIDNEY         CLOUDY    52  27  38 S16       29.78F
6HR MIN TEMP:  30; 6HR MAX TEMP:  52;

$$

NEZ057>060-069>072-079>082-181900-
SOUTHWEST NEBRASKA

CITY           SKY/WX    TMP DP  RH WIND       PRES   REMARKS
NORTH PLATTE   SUNNY     58  29  33 CALM      29.81F
6HR MIN TEMP:  22; 6HR MAX TEMP:  58;

IMPERIAL       SUNNY     54  29  38 SE13      29.78F
6HR MIN TEMP:  26; 6HR MAX TEMP:  54;

LEXINGTON      SUNNY     57  32  38 SE10      29.82F
MCCOOK         SUNNY     55  32  41 VRB3      29.81F
6HR MIN TEMP:  23; 6HR MAX TEMP:  55;

OGALLALA       SUNNY     55  28  35 S9        29.78F
$$

NEZ005>010-023>029-035>040-094-181900-
NORTH CENTRAL NEBRASKA

CITY           SKY/WX    TMP DP  RH WIND       PRES   REMARKS
VALENTINE        N/A     56  27  32 S20       29.78F
6HR MIN TEMP:  23; 6HR MAX TEMP:  56;

AINSWORTH      SUNNY     57  32  38 S15       29.80S
BROKEN BOW     SUNNY     57  31  37 SE10      29.81F
6HR MIN TEMP:  27; 6HR MAX TEMP:  57;

O`NEILL        SUNNY     59  32  35 SE10      29.81F
ORD            SUNNY     58  29  33 SE12      29.82F
6HR MIN TEMP:  28; 6HR MAX TEMP:  58;

THEDFORD       MOSUNNY   58  29  32 S14       29.80F
$$

NEZ041-046>049-061>064-073>077-083>087-181900-
SOUTH CENTRAL NEBRASKA

CITY           SKY/WX    TMP DP  RH WIND       PRES   REMARKS
GRAND ISLAND   SUNNY     58  33  39 E10       29.84S
6HR MIN TEMP:  27; 6HR MAX TEMP:  58;

AURORA         SUNNY     59  32  36 SE9       29.83F
HASTINGS       SUNNY     60  32  34 E9        29.83F
6HR MIN TEMP:  28; 6HR MAX TEMP:  60;

HEBRON         SUNNY     60  35  38 E10       29.82F
HOLDREGE       SUNNY     57  32  38 SE10      29.82S
KEARNEY *      SUNNY     57  32  38 E12       29.83F
YORK           SUNNY     57  34  41 E9        29.84S
$$

NEZ011>018-030>034-042>045-181900-
NORTHEAST NEBRASKA

CITY           SKY/WX    TMP DP  RH WIND       PRES   REMARKS
NORFOLK        SUNNY     57  32  38 VRB5      29.83S
6HR MIN TEMP:  27; 6HR MAX TEMP:  58;

ALBION         SUNNY     59  32  37 SE6       29.84S
BLAIR          SUNNY     57  35  43 NE7       29.83F
FREMONT        SUNNY     56  36  47 CALM      29.85S
TEKAMAH        SUNNY     52  37  56 CALM      29.84F
6HR MIN TEMP:  31; 6HR MAX TEMP:  52;

WAYNE          SUNNY     56  36  46 CALM      29.84S
$$

NEZ050>053-065>068-078-088>093-181900-
SOUTHEAST NEBRASKA

CITY           SKY/WX    TMP DP  RH WIND       PRES   REMARKS
LINCOLN        SUNNY     61  34  36 E6        29.84F
6HR MIN TEMP:  27; 6HR MAX TEMP:  61;

OMAHA EPPLEY   MOSUNNY   61  37  41 CALM      29.82F
6HR MIN TEMP:  30; 6HR MAX TEMP:  61;

BEATRICE       SUNNY     62  35  36 SE9       29.82F
FALLS CITY     SUNNY     61  39  44 VRB3      29.82S
6HR MIN TEMP:  32; 6HR MAX TEMP:  61;

NEBRASKA CITY  SUNNY     58  29  32 NE6       29.83F
PLATTSMOUTH    SUNNY     59  30  33 NE5       29.82F
$$

NEZ044-045-051>053-067-181900-
OMAHA AREA

CITY           SKY/WX    TMP DP  RH WIND       PRES   REMARKS
OMAHA EPPLEY   MOSUNNY   61  37  41 CALM      29.82F
6HR MIN TEMP:  30; 6HR MAX TEMP:  61;

BLAIR          SUNNY     57  35  43 NE7       29.83F
FREMONT        SUNNY     56  36  47 CALM      29.85S
MILLARD        SUNNY     62  36  38 E5        29.82F
OFFUTT AFB     SUNNY     61  37  41 VRB5      29.82F
PLATTSMOUTH    SUNNY     59  30  33 NE5       29.82F
WAHOO          FAIR      59  34  38 E3        29.84S
$$




USA.gov is the U.S. government's official web portal to all federal, state and local government web resources and services.